Theta_e
306 306 307 307 308 310 311 312 313 314 316 319 322 323 320 317 314 314 316 318 319 324 327 325 329 334 334 335 337 337 336 332 332 335 334 333 333 324 317 315 317 318 317 316 316 316 316 316 317 320 322 323 322 320 318 317 316 315 316 318 322 321 319 316 315 319 322 324 323 320 320 319 320 320
305 306 306 307 307 309 310 310 312 313 314 315 317 319 321 321 315 316 313 314 321 322 327 327 327 331 333 335 336 337 337 329 331 336 335 333 333 322 317 314 313 314 316 315 313 312 315 317 320 323 323 322 320 317 315 314 314 314 317 320 321 319 318 315 316 320 321 322 321 319 318 318 318 319
305 305 305 306 306 308 308 309 310 312 313 313 313 313 314 314 316 315 315 311 319 325 324 327 330 329 331 333 334 334 334 331 332 335 335 334 326 322 322 315 314 313 314 313 314 315 313 313 316 318 321 321 320 317 317 316 315 317 319 318 317 319 318 317 317 322 323 322 322 322 319 319 320 321
304 304 304 305 306 306 307 308 309 309 309 309 308 309 310 310 311 312 311 309 311 322 325 327 328 330 331 333 333 334 333 331 323 335 335 335 324 327 331 317 314 314 313 313 314 316 314 312 314 316 319 318 319 318 317 316 317 317 315 314 314 316 316 316 317 323 323 322 323 323 319 320 320 321
303 303 303 304 305 305 305 306 307 307 306 306 306 306 307 307 308 307 305 304 307 314 322 326 328 331 333 331 332 331 331 332 333 327 333 334 333 331 331 331 316 313 312 312 311 311 312 311 316 318 318 319 319 318 315 315 314 312 311 311 311 311 315 317 315 319 323 322 322 321 318 318 319 320
303 303 302 302 303 304 303 304 305 305 304 303 303 303 303 303 304 306 303 303 303 304 311 317 324 327 332 329 332 331 330 330 332 333 332 332 332 331 331 332 331 313 312 311 310 310 311 310 312 314 312 312 313 312 310 310 309 312 310 307 307 312 314 317 315 316 320 320 320 319 318 318 318 319
302 301 301 301 302 302 302 303 304 304 302 302 301 301 302 301 301 302 303 301 300 301 304 311 315 321 326 328 330 331 331 332 333 332 333 332 331 331 331 331 331 314 310 309 310 310 310 310 310 310 311 310 309 310 309 308 308 308 308 306 306 308 309 311 313 313 318 319 319 318 317 317 318 320
300 300 300 300 300 300 300 301 302 302 301 300 300 300 300 300 300 300 300 300 299 300 301 306 310 315 321 324 328 331 332 331 331 331 333 333 331 330 331 331 330 321 310 309 310 310 310 309 309 309 309 309 309 308 308 308 307 306 307 307 306 307 307 308 308 308 313 317 317 316 315 316 319 321
300 299 299 299 299 299 298 299 299 300 299 299 299 298 299 299 299 299 299 299 300 299 299 302 307 312 316 322 325 328 328 328 329 331 331 331 330 330 330 330 331 321 310 309 310 309 309 309 308 308 309 308 308 307 307 307 307 307 307 307 306 306 306 306 307 307 308 309 311 317 316 315 319 321
300 299 299 298 298 298 298 298 298 298 297 297 297 297 297 297 298 298 298 299 300 300 299 300 302 307 312 316 321 327 329 327 325 328 329 329 330 329 328 328 330 330 323 317 316 311 310 309 309 309 309 308 307 307 307 307 307 307 307 307 306 306 306 306 306 305 305 307 307 312 315 314 317 319
299 299 299 298 298 297 298 297 297 297 296 296 295 296 295 296 296 296 296 298 298 299 299 300 302 304 309 315 317 321 327 329 327 325 325 323 326 328 328 326 328 329 328 317 311 313 313 313 313 309 307 307 308 307 307 307 308 307 306 306 305 306 305 305 305 305 304 306 306 307 307 310 314 319
299 299 298 298 298 298 298 297 297 297 295 295 294 295 295 295 295 295 295 296 297 297 298 299 300 303 305 310 316 320 324 325 326 326 324 321 322 323 326 327 326 327 327 322 317 312 312 312 312 308 307 308 308 307 307 308 308 308 306 305 304 305 305 305 305 305 305 304 305 304 305 304 307 314
298 298 298 298 298 299 299 297 297 297 296 295 294 294 295 295 294 294 294 295 295 296 296 297 300 301 303 307 310 314 318 321 321 326 328 323 324 325 325 326 328 326 324 323 318 317 317 315 317 318 315 314 311 311 309 311 308 308 305 304 304 305 305 305 305 305 305 304 304 304 304 304 304 305
298 297 297 298 298 297 297 296 296 294 294 295 295 294 294 294 293 293 293 293 294 294 294 296 297 298 300 303 307 311 316 322 324 326 326 322 324 324 322 322 325 327 325 322 317 318 320 319 318 319 316 318 314 317 314 318 314 309 304 304 305 305 305 305 305 305 305 304 304 304 304 303 303 302
296 296 296 297 298 297 297 296 295 294 293 293 293 293 294 295 294 293 292 293 294 294 294 295 296 296 298 300 304 307 312 316 320 322 324 324 322 319 317 315 320 326 324 321 319 318 321 320 318 318 319 319 318 318 316 310 308 307 304 304 304 304 304 305 304 304 304 303 303 304 303 303 303 302
295 295 295 296 296 296 296 296 295 295 293 293 293 292 293 293 293 293 294 293 293 293 293 294 295 296 297 299 302 304 307 310 316 320 324 323 321 319 317 318 317 322 324 320 319 318 321 321 320 318 318 320 319 318 313 307 307 306 304 304 304 304 304 304 304 304 303 303 302 303 303 303 303 301
295 294 294 295 296 296 298 297 295 294 294 294 294 294 294 294 294 292 292 292 295 295 293 293 294 295 296 297 300 305 307 310 311 315 318 322 321 321 319 320 321 322 322 319 317 315 319 319 316 318 320 321 320 318 310 307 306 305 304 304 303 303 303 303 303 303 302 302 302 302 303 302 302 301
295 295 294 294 294 295 295 295 294 293 293 294 294 295 295 296 296 294 294 293 293 295 296 295 294 296 298 297 299 303 305 306 308 310 313 319 321 321 320 322 323 322 321 317 316 314 316 316 316 316 320 321 320 319 313 306 305 305 304 303 303 303 303 303 303 303 302 301 302 301 302 302 301 301
296 296 295 295 295 294 294 295 293 292 292 293 293 294 294 295 295 296 297 297 296 296 296 295 295 296 297 298 299 301 302 304 306 310 312 315 318 323 323 322 320 316 319 320 317 312 316 316 314 316 320 318 317 319 310 306 305 304 304 303 302 302 302 302 302 302 302 301 302 301 301 300 300 299
297 296 296 296 295 295 295 294 291 291 293 293 293 293 293 294 295 296 296 294 294 295 295 295 296 297 298 297 299 300 302 303 305 305 306 311 317 318 317 315 315 312 317 320 316 314 314 314 314 316 320 318 315 317 318 306 305 304 304 303 302 302 302 302 302 302 302 301 301 301 300 300 299 298
297 297 296 296 295 295 295 292 289 290 291 293 292 292 292 292 293 294 296 294 293 293 293 293 293 293 293 293 294 293 294 296 298 299 298 301 311 316 313 314 314 313 313 316 318 316 314 314 314 314 316 315 313 314 315 314 304 304 303 303 302 302 302 302 302 302 301 301 301 301 300 299 298 297
297 297 296 296 295 294 294 290 289 289 292 293 292 291 290 290 291 293 294 294 295 294 294 294 294 294 295 295 296 295 293 293 295 296 296 305 313 314 315 313 315 315 312 312 317 314 315 316 314 313 311 311 311 313 314 314 309 303 303 302 302 302 301 301 301 301 301 301 301 301 299 298 297 303
296 296 296 295 294 293 292 289 289 289 292 293 292 291 290 289 290 291 292 291 292 293 294 296 297 298 298 301 302 302 298 297 299 301 301 308 313 313 315 314 314 311 311 314 317 312 313 312 314 311 304 305 307 308 312 311 310 308 308 307 306 302 301 301 301 301 301 300 300 300 298 297 300 309
295 295 296 295 292 289 289 289 289 289 290 292 293 292 289 287 287 290 291 293 292 292 293 294 295 296 297 298 299 300 301 302 303 303 307 310 312 314 316 315 314 312 314 313 314 313 314 313 311 311 309 306 302 304 305 309 309 308 308 308 307 302 301 301 301 299 300 299 299 298 297 297 302 310
294 294 294 296 293 289 289 289 289 289 290 290 293 292 290 289 290 291 292 292 293 292 292 293 293 294 295 296 297 298 299 300 301 302 303 305 309 312 313 315 314 314 318 314 308 314 311 310 311 310 309 309 305 300 303 306 308 307 307 308 307 306 305 306 305 305 299 298 297 297 296 298 300 306
294 294 294 295 292 289 289 289 289 289 290 290 292 290 289 289 289 291 292 292 292 291 291 291 292 292 292 293 294 296 296 298 299 301 302 304 306 307 310 312 313 314 316 314 304 313 312 307 310 306 307 305 301 303 298 300 304 306 307 308 308 306 306 305 305 304 303 302 300 298 298 297 299 300
294 295 294 294 291 289 289 289 289 289 289 291 291 289 289 289 289 291 291 291 291 290 290 290 290 290 291 291 293 294 294 296 298 300 301 303 305 306 308 310 311 313 318 313 310 313 313 311 310 308 306 307 302 299 299 298 298 304 306 306 306 305 306 305 304 303 302 302 300 297 296 297 297 298
294 294 294 292 289 289 289 289 289 289 290 290 289 289 289 289 290 291 291 290 290 289 289 289 288 288 290 291 292 293 295 295 296 298 300 302 303 304 306 308 308 310 313 312 310 313 314 312 310 310 310 306 301 298 298 300 299 301 302 305 304 304 305 305 303 302 301 302 300 299 299 298 298 299
295 291 289 289 289 289 289 289 290 291 290 289 289 289 290 291 291 290 289 289 289 288 288 288 288 289 289 291 292 294 295 295 296 297 299 301 302 304 306 306 305 305 307 310 311 312 313 313 310 310 309 308 305 304 302 298 298 300 301 299 299 302 303 303 302 299 298 298 298 298 298 298 298 298
290 290 290 290 290 291 291 294 293 293 292 289 289 290 292 292 291 290 289 288 288 287 287 287 287 289 291 291 293 294 296 295 294 295 295 297 298 300 301 302 303 305 306 306 309 312 313 313 311 309 307 306 306 303 301 298 297 299 298 300 298 299 300 300 298 298 297 297 297 298 298 298 298 298
295 294 293 292 290 291 290 290 291 291 291 292 293 292 292 293 292 290 289 289 288 288 287 288 289 290 291 293 293 292 293 293 294 294 294 295 296 297 300 301 300 301 304 305 307 309 312 313 310 309 306 305 303 303 302 301 298 297 298 298 297 294 295 297 297 297 298 297 297 297 297 297 298 298
295 295 292 292 294 294 294 293 293 293 294 292 292 291 291 291 291 290 290 290 289 289 290 290 290 290 291 291 291 292 292 292 293 293 293 293 294 296 298 297 296 297 300 302 304 305 304 309 308 307 305 303 301 299 300 299 298 298 296 297 297 296 296 295 295 296 297 296 295 295 296 297 297 298
295 294 293 293 292 292 290 290 291 291 292 292 292 291 290 291 290 289 288 287 288 288 289 289 289 289 290 290 291 291 291 292 292 292 292 293 293 294 295 294 294 294 295 298 300 300 301 300 299 300 299 299 300 301 299 296 298 298 296 295 295 294 295 296 295 295 296 295 294 294 294 295 297 296
292 291 291 291 290 290 290 289 289 289 290 290 290 291 289 291 290 289 289 289 289 288 288 289 288 289 289 290 290 291 290 291 292 292 290 291 292 291 291 292 293 293 294 295 297 298 299 299 299 299 298 296 296 295 297 297 295 296 295 295 295 294 295 295 295 296 296 294 293 292 292 293 295 296
290 290 289 289 290 290 290 288 289 289 290 289 290 289 290 290 289 288 289 289 289 287 287 288 288 289 289 289 290 290 290 290 291 291 291 291 290 290 290 289 290 291 292 293 294 298 300 298 298 297 296 296 295 295 295 295 296 295 295 295 295 294 294 295 295 296 295 295 294 291 291 291 292 294
290 290 289 289 289 290 289 289 289 289 290 289 289 290 289 289 290 289 289 289 290 289 288 287 287 288 288 289 290 291 291 289 291 290 289 289 289 289 290 289 289 290 291 291 292 294 297 298 298 294 291 290 289 287 288 293 294 296 294 293 295 294 294 295 295 295 294 293 293 292 289 288 290 292
289 289 290 290 290 290 289 289 289 289 290 290 290 289 290 289 290 290 290 290 290 289 289 289 288 289 289 289 290 290 291 290 289 289 289 289 289 289 288 288 288 289 289 290 291 291 293 294 296 293 289 287 285 283 284 288 290 292 294 292 292 293 292 292 291 290 291 292 291 290 289 288 289 292
289 290 290 290 290 290 290 290 289 289 290 290 290 290 290 290 291 291 291 290 289 289 290 289 289 289 290 289 290 290 291 291 290 289 289 289 288 288 288 288 288 289 289 289 288 289 290 290 291 292 290 286 285 285 284 286 286 288 292 291 288 288 290 288 287 286 286 288 288 289 290 288 290 292
291 290 290 290 290 291 290 289 289 289 291 291 291 290 290 290 291 290 290 289 289 289 290 289 289 289 288 290 290 291 291 290 289 289 288 288 288 288 288 288 288 290 289 288 288 288 288 287 286 288 289 287 286 286 286 285 284 286 289 291 290 288 287 287 286 286 286 286 286 287 288 289 290 289
291 291 291 291 291 291 290 290 290 290 290 291 291 291 290 289 290 289 289 289 288 289 289 288 289 289 289 289 290 291 292 291 291 290 289 289 288 288 288 289 289 290 289 288 287 287 287 286 286 286 286 286 287 287 287 287 287 288 288 290 291 289 288 288 287 286 286 287 288 287 286 288 288 290
291 291 291 291 291 291 291 290 290 290 290 291 291 290 291 291 290 289 289 289 288 289 288 289 289 289 289 289 290 290 290 291 292 291 290 290 289 288 288 288 289 289 288 287 287 286 286 286 287 287 288 289 290 292 289 287 284 285 286 287 290 291 291 291 290 288 287 288 289 288 287 287 286 287
292 291 292 292 291 292 291 291 291 290 290 290 290 289 291 289 290 288 289 288 289 288 288 288 288 288 289 289 290 290 289 290 291 291 291 291 290 290 288 288 288 288 288 286 286 286 288 292 290 290 290 289 289 287 285 285 284 285 285 286 287 290 290 290 291 291 292 290 288 287 287 287 288 287
292 292 292 292 292 292 291 291 291 290 290 290 289 290 289 289 290 289 289 289 289 288 288 288 289 289 289 290 290 290 290 289 290 291 291 291 291 291 290 289 288 288 288 288 288 288 289 290 291 289 289 289 288 287 285 285 286 286 286 286 286 287 289 290 290 289 289 289 290 291 291 289 288 286
293 292 292 292 292 292 292 291 291 291 291 289 289 289 289 288 288 288 289 288 288 288 289 289 289 289 289 289 289 290 290 290 290 290 291 292 292 292 292 291 290 289 289 289 289 290 290 290 289 289 288 287 288 287 286 286 286 286 286 286 287 287 287 288 289 289 289 289 288 289 289 289 290 290
293 293 292 292 292 292 291 291 291 291 290 289 289 288 288 288 288 288 288 288 288 288 288 289 288 289 289 289 289 288 289 289 290 290 291 292 293 292 292 292 292 291 290 290 289 289 290 290 290 290 288 288 288 287 287 287 286 286 287 287 286 287 288 288 288 287 287 287 287 287 288 289 290 289
Wind_Speed
11 11 12 10 10 9 10 10 10 10 10 10 11 10 10 10 13 14 14 14 14 12 10 11 8 8 10 10 10 11 12 14 11 11 11 13 12 16 20 17 21 21 22 22 23 24 23 22 22 21 21 21 21 21 21 21 20 18 17 16 18 17 14 16 18 20 20 22 20 17 17 16 16 14
10 11 11 10 9 10 10 10 11 10 11 10 10 10 9 11 12 12 14 14 10 13 13 11 11 9 9 9 9 9 11 13 14 12 13 12 12 16 18 22 24 23 22 23 23 24 24 24 23 23 22 22 22 22 21 22 21 19 18 19 20 18 15 14 19 21 19 19 18 17 16 15 15 13
10 11 12 12 11 11 11 11 10 10 10 11 11 10 10 11 11 11 10 13 10 9 13 12 12 12 12 10 10 9 10 12 14 16 15 17 15 17 17 22 21 21 22 22 22 23 24 24 24 24 23 22 23 23 22 22 22 21 21 19 19 18 16 14 18 21 21 18 18 17 17 16 16 14
10 11 12 11 10 10 10 10 10 10 10 10 10 10 10 10 9 9 10 13 17 12 12 14 15 16 14 11 11 12 10 10 13 14 14 15 14 14 13 18 21 23 23 23 22 24 24 24 24 24 24 22 23 24 23 23 23 23 21 20 20 19 17 15 17 21 21 19 18 18 18 17 17 15
12 11 11 11 11 12 11 10 10 10 11 11 10 9 10 10 10 9 9 13 15 15 12 14 13 12 11 13 13 14 12 12 12 14 15 14 12 11 12 13 21 22 23 23 23 24 24 24 24 24 24 23 24 24 24 24 23 23 22 20 20 21 19 16 16 20 22 20 18 17 18 17 16 15
12 12 12 12 12 11 11 11 10 10 10 11 11 10 10 10 10 9 9 10 10 16 14 13 14 14 12 13 11 12 14 14 11 12 13 13 14 14 12 13 11 22 22 22 23 23 24 24 25 24 24 23 23 24 24 24 24 23 23 21 21 22 21 19 17 18 21 21 18 17 18 17 17 16
13 13 13 13 13 10 12 12 10 11 12 12 12 12 10 10 10 11 10 9 12 14 15 13 14 13 13 12 12 12 12 13 11 13 13 12 12 11 13 13 11 18 22 23 23 24 24 24 25 24 24 23 22 23 24 24 24 24 24 23 21 22 22 20 18 19 21 21 19 17 18 18 17 18
13 13 13 13 13 12 12 12 12 11 13 13 12 12 12 11 12 11 10 10 9 9 13 14 12 13 13 13 13 11 11 12 12 12 12 11 10 12 12 13 13 14 22 24 25 24 23 24 24 25 25 24 23 24 24 24 24 24 24 23 23 21 22 21 19 19 20 21 20 17 18 19 20 20
13 13 13 14 13 13 13 13 13 13 16 14 12 13 12 12 12 11 13 13 11 11 12 14 12 11 13 13 14 14 13 11 11 12 11 9 13 14 14 13 14 16 20 24 27 25 25 25 25 25 26 26 25 25 25 25 24 24 24 24 23 22 21 21 20 19 19 19 20 19 18 19 20 21
13 13 13 13 13 14 13 13 13 14 16 14 14 15 14 14 13 14 14 13 14 13 12 12 15 11 12 12 12 15 13 12 12 9 10 11 12 13 14 13 11 11 7 8 14 20 22 24 26 27 27 27 27 26 26 25 25 25 24 24 23 23 23 22 20 19 18 18 19 19 19 19 20 21
13 13 13 13 13 14 13 14 14 15 17 15 16 15 16 16 16 16 15 14 14 14 14 13 12 12 11 12 14 14 15 13 12 11 9 11 12 13 13 13 12 12 11 16 20 18 16 20 19 23 26 26 26 25 25 25 26 25 25 24 24 24 23 23 22 20 19 19 18 19 19 19 20 21
13 13 13 13 13 14 13 14 14 15 15 15 16 16 16 16 17 16 16 16 14 13 13 12 13 12 12 12 12 13 13 12 8 8 11 12 10 11 13 15 13 13 13 10 12 14 18 18 21 23 23 27 27 27 26 27 26 26 26 25 25 24 23 23 22 21 20 19 19 19 19 19 20 20
13 13 12 12 13 15 17 19 17 16 16 15 17 17 17 17 17 16 15 15 15 14 13 14 13 13 13 12 12 12 11 13 13 9 8 11 10 10 11 13 14 12 13 10 10 11 13 13 12 11 10 14 21 23 26 23 27 26 25 26 25 24 24 23 23 22 21 20 20 19 20 20 19 19
14 14 13 13 18 18 19 19 16 15 16 19 18 18 17 17 17 16 15 14 14 14 14 13 14 15 14 12 12 12 13 14 13 11 9 12 9 10 11 12 12 13 13 10 9 13 13 13 10 9 14 16 19 12 16 15 19 24 26 26 25 25 25 24 23 23 22 21 20 20 20 20 20 20
14 14 14 14 16 17 19 18 16 15 18 20 21 21 21 20 17 16 16 14 14 14 13 14 14 14 17 16 14 14 14 13 15 12 10 8 10 11 11 11 8 11 15 14 11 12 14 15 13 13 13 16 14 14 15 23 26 27 27 26 26 25 25 25 24 23 23 21 21 20 20 21 21 20
13 14 14 14 13 14 18 18 17 20 22 21 21 21 20 20 19 17 14 15 15 14 14 15 15 14 16 17 15 14 13 13 14 14 10 9 11 11 10 11 12 7 13 12 11 11 11 15 14 15 16 14 16 17 21 27 26 25 25 25 26 25 25 25 24 23 22 22 22 22 21 21 20 20
13 13 13 14 14 14 22 18 18 20 21 22 22 21 20 19 18 17 16 17 16 16 16 16 18 16 16 18 17 15 15 14 14 13 13 12 12 12 13 11 11 5 14 13 12 13 12 13 13 13 15 14 15 17 23 28 26 25 26 27 26 26 25 25 24 23 23 23 23 22 22 21 20 20
13 13 14 14 15 16 17 17 20 19 19 20 19 18 18 18 20 19 18 17 17 14 13 14 17 18 17 18 19 20 18 17 14 13 13 14 13 12 14 13 13 9 13 14 12 10 10 13 12 15 13 13 14 13 20 26 26 26 28 27 26 26 25 25 25 24 23 23 22 22 22 21 20 19
14 14 14 15 15 16 17 17 20 19 20 20 18 18 18 19 18 18 18 16 15 15 14 15 17 19 20 20 22 21 18 19 17 14 15 16 16 12 10 10 8 6 13 15 11 14 11 9 13 16 13 12 12 11 17 25 26 27 26 26 26 26 26 26 26 24 23 22 22 22 21 21 20 18
10 12 15 15 16 17 17 21 23 21 20 20 19 19 19 19 18 17 15 16 16 17 16 16 16 17 20 23 21 20 18 17 15 13 14 16 16 15 11 11 7 9 9 11 11 8 5 10 10 12 10 10 12 13 11 20 27 27 26 27 27 27 27 26 26 26 24 23 23 22 22 21 19 18
10 11 14 16 16 17 18 21 22 22 22 19 19 19 19 19 18 18 18 19 19 19 21 23 24 24 24 23 25 27 29 23 20 13 14 15 14 12 11 11 10 10 10 10 12 11 9 10 12 9 8 11 12 11 12 11 22 27 27 28 28 27 27 26 26 26 25 24 23 22 21 20 18 17
10 12 16 17 15 17 18 22 22 22 22 20 19 19 20 21 21 21 20 17 16 19 20 20 20 19 19 20 20 18 19 21 18 13 15 15 11 14 11 11 9 6 9 12 12 9 10 9 9 9 5 7 6 10 11 11 16 25 25 27 26 26 26 26 26 25 25 24 22 22 21 20 18 13
11 12 12 15 15 18 18 22 21 22 21 20 19 19 19 20 23 21 22 18 18 19 19 17 17 15 16 14 12 12 15 11 10 12 16 11 11 12 10 10 7 7 9 7 9 10 6 9 10 8 5 7 3 2 7 9 10 13 14 16 17 25 25 25 24 24 25 23 22 21 21 21 18 11
12 12 13 13 18 22 22 22 22 21 21 20 19 18 16 17 20 19 19 18 17 18 17 17 16 16 15 13 12 11 10 10 11 8 6 9 10 10 9 9 10 10 6 8 14 13 7 7 9 12 11 9 7 6 5 7 9 11 13 14 14 20 22 22 20 24 23 22 22 21 22 23 18 12
12 12 13 12 18 22 22 21 22 21 21 20 17 17 14 15 19 20 14 18 23 16 17 15 13 12 12 12 11 10 11 8 9 7 7 8 7 7 7 8 10 12 8 8 18 11 9 9 10 9 7 4 3 6 5 7 8 11 13 14 14 14 13 14 14 14 17 22 22 22 22 23 20 15
12 12 12 12 17 21 21 21 21 21 20 21 14 16 23 24 24 19 16 14 12 12 14 12 12 12 12 12 12 11 10 9 9 8 7 6 7 5 5 6 7 9 9 9 19 13 8 6 10 11 9 7 4 7 7 5 5 9 10 11 12 14 16 14 14 15 14 11 12 16 19 23 18 16
11 11 12 13 19 20 19 19 20 20 22 18 16 23 24 24 24 20 13 14 11 10 10 10 12 12 13 12 12 11 11 11 10 9 9 9 7 6 5 5 5 7 5 6 15 13 12 8 9 13 13 11 8 7 8 9 7 7 9 9 9 11 12 13 13 13 13 12 11 21 21 21 17 15
10 11 12 13 19 18 18 18 17 17 18 16 21 21 23 23 21 16 14 14 13 13 14 14 12 12 11 11 11 11 11 11 12 10 10 9 9 8 6 4 4 3 5 5 9 12 12 10 9 12 12 13 12 13 10 2 4 10 12 10 10 12 11 13 12 12 11 12 12 12 10 8 8 11
9 11 15 16 16 16 17 17 16 15 18 22 21 20 20 20 14 13 12 13 14 13 13 12 13 12 11 12 12 13 11 11 9 9 6 6 7 6 6 5 5 6 6 3 7 11 11 10 9 9 8 9 11 10 10 11 12 12 12 12 10 11 10 11 13 14 13 12 12 12 11 11 12 10
11 12 14 14 15 15 16 14 14 13 13 17 19 17 18 15 14 13 13 18 14 14 13 13 13 11 11 13 13 12 11 11 11 10 12 13 13 13 10 9 7 7 6 6 5 7 11 11 9 9 8 7 5 6 7 9 7 8 11 13 10 9 9 12 16 14 13 12 12 12 10 9 10 10
10 11 11 10 11 10 13 13 13 15 15 14 15 15 15 13 13 14 14 14 13 15 13 11 11 13 12 12 13 13 13 15 13 13 11 12 12 12 11 8 9 9 9 9 5 4 6 7 7 10 10 7 5 5 6 7 11 12 10 11 17 15 11 15 14 14 13 12 12 11 10 10 11 9
9 9 9 10 11 12 13 15 14 15 14 14 13 14 13 12 13 14 16 14 12 12 12 12 13 13 14 15 14 13 11 12 14 13 11 12 11 11 12 12 11 10 10 10 9 9 6 4 4 5 4 5 7 8 7 7 10 11 11 8 5 8 13 17 16 13 14 15 13 12 11 11 11 9
8 9 10 12 13 14 13 14 15 15 15 14 14 13 13 13 13 12 12 14 14 14 14 14 14 15 14 15 14 15 15 14 13 14 12 12 13 12 11 11 10 11 11 10 9 11 11 10 12 12 12 12 9 6 9 10 7 8 10 9 10 10 10 13 14 14 15 15 14 13 12 10 9 10
7 8 9 11 12 12 13 13 13 13 13 13 13 12 14 13 13 11 12 12 13 13 13 13 14 14 14 14 14 15 16 15 14 14 14 12 13 13 12 11 11 10 10 11 11 10 12 11 11 12 15 15 16 16 9 6 10 8 8 9 11 11 8 11 15 18 15 15 16 15 14 12 10 8
9 10 11 11 11 11 11 12 12 12 12 13 12 12 11 10 11 12 11 12 10 12 12 13 13 13 14 14 14 14 14 14 18 17 14 12 13 12 12 12 12 12 11 11 11 9 7 9 11 11 10 11 13 14 23 16 6 10 9 8 8 11 10 10 13 14 16 14 16 16 13 12 11 9
9 9 10 10 11 11 11 11 11 11 11 12 12 12 12 13 12 12 12 12 12 10 12 14 14 14 14 13 13 14 14 14 15 15 14 13 14 12 12 12 12 13 12 12 11 10 8 8 6 10 10 9 10 11 7 21 21 5 10 11 9 10 10 10 12 12 14 12 13 17 15 15 13 10
9 9 10 11 12 12 11 11 11 11 11 11 11 11 11 12 13 13 13 14 13 11 11 10 10 10 12 13 12 10 12 14 15 15 15 12 13 12 12 13 13 14 14 13 12 12 10 10 7 9 12 11 12 12 9 6 21 24 7 12 11 11 12 12 12 11 9 12 11 13 16 15 14 11
9 10 11 11 12 12 11 11 10 10 11 11 11 11 12 13 14 15 15 15 13 12 12 12 11 11 10 10 10 12 13 12 14 17 15 15 14 14 12 11 14 13 13 15 14 13 12 13 10 7 10 13 10 12 13 8 9 14 20 8 13 11 12 14 14 15 14 12 16 13 13 14 14 12
10 10 11 11 11 12 12 12 10 11 12 12 12 12 12 12 13 14 13 13 14 13 12 13 12 11 12 12 11 11 13 12 12 13 15 14 15 13 12 12 13 14 15 17 16 17 16 14 13 11 9 10 10 9 11 14 15 11 17 22 9 13 9 14 14 14 14 14 15 15 14 13 15 19
10 9 10 10 11 11 11 11 11 11 11 11 11 12 11 11 12 12 12 13 13 13 13 12 13 13 12 12 12 12 13 14 12 11 11 12 10 13 14 12 14 16 17 17 16 15 14 14 12 11 13 13 11 11 12 13 12 12 14 19 25 15 10 13 14 11 14 13 12 13 14 10 10 8
9 10 10 10 10 11 11 11 10 10 11 11 11 11 11 11 11 12 11 13 11 12 13 13 13 13 12 12 12 12 12 12 13 12 11 11 12 12 15 14 13 15 16 17 16 14 14 11 11 13 11 8 8 11 15 15 14 10 13 13 19 22 20 16 12 12 11 10 11 11 10 10 11 9
8 9 9 10 10 10 10 10 10 10 10 10 10 9 10 9 9 13 12 13 12 12 12 13 13 13 12 12 12 11 11 11 11 12 11 11 12 12 14 14 14 13 14 13 13 12 11 12 12 12 10 10 10 16 14 12 12 11 11 13 12 19 22 22 20 16 10 8 10 10 9 9 7 9
8 9 9 9 8 9 9 9 9 9 9 10 8 9 9 9 10 11 12 12 12 12 12 13 12 12 12 11 11 11 11 11 10 10 11 11 11 11 12 12 13 13 12 12 12 10 10 12 12 11 11 13 12 11 14 11 11 12 11 11 12 9 13 18 19 19 19 19 14 8 5 6 7 7
8 8 8 8 8 8 9 9 9 9 9 8 7 8 8 9 10 10 11 11 11 11 11 11 12 12 11 11 11 11 10 10 9 10 10 10 11 11 10 10 11 13 13 13 13 14 13 12 12 9 11 13 10 11 14 12 12 10 10 9 10 10 9 8 9 13 15 17 17 14 16 16 13 11
7 7 8 8 7 7 7 7 8 8 8 7 7 8 8 8 9 9 10 10 10 10 10 10 11 11 11 11 11 11 10 11 11 9 9 9 10 10 10 11 11 12 13 12 12 13 12 11 10 10 11 11 9 10 11 12 11 10 11 12 10 8 8 6 8 9 7 6 13 13 11 13 14 14
Wind_Direction
354 351 349 346 338 338 337 333 330 325 323 320 314 311 308 305 298 299 298 294 296 291 285 285 269 247 247 248 245 239 233 233 212 205 211 217 214 210 206 197 216 211 207 205 204 203 203 203 202 203 201 199 192 187 182 181 183 192 200 202 201 207 201 188 184 188 194 194 191 189 187 184 185 190
355 353 350 347 340 340 337 336 332 331 327 321 320 319 317 316 306 303 298 296 290 289 286 279 279 272 251 249 248 241 239 227 212 216 216 220 217 215 200 201 209 209 206 205 203 203 203 203 203 203 201 199 192 187 182 181 183 189 200 202 200 206 202 193 185 186 194 197 192 188 185 181 186 193
354 351 351 351 347 343 336 333 333 333 340 341 338 336 335 332 329 322 312 303 291 291 291 288 283 280 272 264 263 247 245 238 214 223 222 226 214 211 214 209 208 209 208 205 203 203 203 204 205 205 202 200 192 187 184 184 184 186 198 200 198 202 202 195 187 186 193 197 197 188 183 182 188 194
348 346 347 349 348 345 337 337 337 343 345 342 336 333 332 328 330 329 324 314 308 312 299 291 287 282 278 264 255 249 245 232 211 228 223 222 206 213 222 207 208 208 208 207 204 204 203 203 204 205 204 200 194 188 186 185 186 185 192 197 195 200 203 196 193 188 192 198 201 189 183 186 190 193
355 350 346 346 348 346 341 339 340 343 343 340 335 334 333 329 331 335 327 317 311 308 312 307 296 290 275 268 261 262 253 250 241 227 231 225 214 215 220 217 214 211 208 206 204 204 203 202 203 204 204 200 194 189 186 185 186 184 186 194 193 197 202 197 196 193 192 197 202 190 184 188 190 191
359 353 350 348 348 346 342 339 341 345 344 342 337 335 334 329 325 328 321 314 310 305 312 310 310 302 279 267 262 254 259 253 240 231 231 228 222 220 217 220 214 208 210 209 206 204 204 201 202 202 202 199 194 189 186 186 186 184 185 189 194 194 199 196 194 197 192 195 199 189 183 185 188 188
355 354 352 352 350 347 344 343 342 346 344 341 336 332 331 327 322 321 320 315 310 310 304 306 303 302 299 282 274 263 254 250 238 233 229 225 223 219 216 216 221 202 204 204 209 207 205 203 201 200 198 198 194 190 188 187 186 186 184 186 191 193 196 194 192 196 195 193 195 188 183 183 186 188
357 354 352 353 351 349 345 344 344 345 343 340 335 331 329 327 324 320 317 310 299 297 297 302 302 300 298 294 286 273 263 256 248 240 233 225 222 224 219 218 220 205 199 198 205 206 206 205 202 200 196 196 194 192 189 188 187 186 185 186 188 192 193 193 190 192 199 193 194 189 185 184 188 190
358 355 354 352 352 350 345 346 345 344 341 339 335 331 330 326 323 320 317 312 305 298 294 296 295 293 289 288 286 281 272 264 257 249 235 218 227 224 222 223 220 216 194 197 205 205 203 204 203 201 197 195 193 192 190 188 188 187 186 187 188 191 192 192 191 191 195 196 192 193 188 187 187 189
0 356 354 353 352 351 348 346 344 342 340 337 333 330 328 325 321 318 314 311 309 301 292 291 295 297 296 296 284 277 266 263 264 249 235 234 226 222 222 219 215 218 191 195 206 209 208 204 202 201 199 196 193 192 190 189 188 188 187 187 189 191 193 193 192 191 192 196 193 193 192 190 189 188
1 358 356 354 354 351 348 347 344 341 339 336 331 328 326 323 321 318 314 311 308 304 300 295 288 291 289 285 288 284 274 256 255 254 249 238 226 223 220 218 215 215 210 202 201 199 194 203 206 208 201 195 194 192 192 191 189 188 188 188 190 192 194 194 194 193 192 194 195 192 191 191 191 191
359 357 356 354 354 350 349 346 341 341 338 333 327 325 322 320 318 316 314 312 308 303 301 294 297 292 291 289 280 280 275 264 248 236 248 252 232 223 222 222 216 212 210 199 205 202 199 206 204 200 206 202 193 194 194 193 191 190 189 189 190 191 193 195 195 194 193 194 195 193 189 189 192 194
360 357 354 352 350 347 345 342 338 335 333 329 325 321 319 316 313 310 308 308 307 303 299 297 294 292 289 284 287 283 274 262 257 238 217 245 242 232 225 223 218 207 203 203 193 192 190 194 196 187 193 205 202 198 195 195 194 192 191 190 189 190 192 195 195 194 194 194 193 193 189 189 191 194
359 357 354 349 348 346 345 341 336 334 327 322 317 314 314 312 310 305 302 300 301 302 299 296 298 294 289 286 284 283 281 281 270 250 232 245 243 240 234 232 218 204 201 193 193 202 190 188 191 186 201 202 195 196 194 195 193 196 192 189 189 190 191 194 195 194 194 193 191 191 189 188 190 193
355 353 352 349 347 347 345 343 342 336 329 321 314 308 304 301 299 301 298 292 295 296 293 294 290 286 286 283 280 277 283 285 277 263 248 232 239 238 233 230 223 203 195 200 201 204 194 189 192 191 197 196 187 194 193 197 194 194 190 189 189 190 192 193 196 195 193 192 189 189 189 189 190 192
356 353 351 349 348 347 346 344 343 339 333 323 315 311 305 300 291 282 279 290 293 288 291 291 286 285 282 285 281 278 278 279 284 275 252 238 239 238 228 229 227 205 185 200 206 203 189 193 198 194 200 192 193 190 192 197 196 192 188 190 190 190 191 192 195 196 193 191 189 189 190 189 188 189
358 354 350 349 348 347 346 346 345 340 334 327 322 315 311 308 308 306 290 269 269 283 280 283 285 281 283 283 279 277 274 276 279 285 273 250 238 236 238 227 231 186 188 196 201 204 194 190 196 202 197 194 198 196 196 195 193 188 189 191 191 190 189 190 193 196 194 191 190 189 189 188 187 188
2 358 354 350 348 347 346 347 346 338 334 331 327 325 324 322 318 313 306 299 286 275 277 279 281 284 281 276 279 278 280 279 273 275 274 270 248 239 238 236 231 203 174 194 197 209 190 191 193 203 200 192 197 196 197 195 193 191 190 190 190 189 189 189 191 195 195 192 189 188 187 187 186 185
10 3 358 354 351 349 348 350 344 337 336 333 330 327 326 324 323 319 319 319 315 307 296 287 281 280 278 274 271 271 268 263 264 261 267 272 273 266 248 247 238 191 194 195 182 210 198 165 194 205 196 188 198 198 192 191 194 193 190 188 189 189 189 189 189 193 195 192 188 186 186 185 182 179
4 7 5 0 357 352 350 348 339 335 336 338 335 332 330 328 325 323 320 314 307 298 292 287 279 276 274 273 271 266 262 263 267 280 290 288 271 261 245 232 182 191 199 197 191 216 181 186 195 199 192 184 197 196 201 191 191 192 190 189 189 189 189 189 189 189 192 191 188 185 183 181 177 174
359 360 4 4 0 355 352 343 335 336 335 344 341 336 334 332 329 328 329 325 313 301 294 288 281 276 275 275 276 267 256 250 254 262 271 263 260 244 230 229 210 204 178 204 201 199 199 184 195 195 190 190 195 194 200 192 193 190 191 190 190 189 189 188 188 188 188 189 187 182 177 174 171 163
360 356 355 358 357 352 348 338 336 338 343 348 345 342 338 336 336 334 332 327 323 316 309 304 299 295 295 296 298 286 264 252 242 224 236 242 245 245 225 229 212 188 184 203 195 197 216 171 185 182 162 185 212 202 198 191 192 191 190 191 190 189 189 188 187 185 185 185 184 178 171 164 152 152
2 358 0 358 355 349 340 337 339 341 347 349 349 347 340 337 337 335 330 325 325 328 327 327 326 323 322 316 316 319 318 309 271 224 228 243 238 242 229 224 212 215 213 193 169 210 202 161 184 157 136 195 202 175 196 189 180 188 189 189 190 192 189 187 183 182 182 180 179 173 163 155 154 164
6 3 359 359 357 347 341 340 340 343 347 352 352 350 341 335 333 328 324 324 326 324 326 324 327 326 326 321 322 324 327 335 348 334 292 257 247 247 242 219 212 223 199 171 174 198 200 181 182 185 182 166 198 192 178 178 179 184 184 182 186 187 186 183 183 180 175 173 170 164 159 158 164 164
6 1 358 355 352 343 339 339 340 341 345 349 352 349 342 334 324 325 327 329 329 327 327 326 325 328 330 329 328 331 333 331 339 331 318 316 301 269 256 239 226 233 217 167 183 195 198 188 192 178 204 201 123 140 178 176 174 176 184 183 180 175 175 180 177 175 168 163 161 159 160 164 169 165
4 358 352 352 344 337 336 338 340 341 343 346 353 344 339 335 338 338 336 327 325 325 330 326 329 331 331 334 338 336 338 341 337 329 317 301 298 290 295 284 260 245 224 172 176 194 187 184 188 183 191 172 164 151 141 178 178 181 181 184 182 169 169 163 163 164 163 151 154 160 165 168 167 157
356 354 349 344 336 333 334 338 340 343 346 350 348 343 345 342 339 340 335 336 327 323 322 326 332 332 334 336 337 337 340 342 336 328 329 323 317 308 294 277 287 292 313 157 188 195 200 199 182 185 191 194 151 157 162 161 186 173 173 179 174 152 165 155 151 152 155 156 154 160 163 164 151 139
355 353 348 335 328 333 338 338 340 342 349 348 343 347 348 345 343 344 338 338 335 331 337 337 335 335 332 329 333 340 340 338 338 334 329 333 339 334 317 338 346 330 293 194 192 203 204 203 192 204 192 175 169 168 172 93 116 164 169 164 157 162 160 156 143 139 140 143 146 152 139 131 122 112
354 336 329 329 335 335 343 340 345 351 354 348 344 345 350 352 351 347 340 339 338 337 340 337 336 331 333 338 333 332 336 336 339 342 327 339 353 346 357 19 27 17 2 291 210 201 207 206 199 195 192 193 182 184 168 173 160 164 161 144 154 160 157 149 137 135 135 133 139 146 150 146 147 133
328 339 331 332 341 354 353 355 1 357 350 339 339 345 357 358 354 352 342 345 345 344 336 336 335 332 333 339 334 334 340 355 2 348 354 357 7 7 7 6 12 7 4 352 307 235 211 204 187 179 180 178 190 167 162 133 149 152 153 156 141 114 140 143 138 133 135 140 140 139 137 129 133 131
354 344 337 332 320 337 336 349 351 357 350 349 357 0 359 358 355 353 354 347 341 341 337 331 333 339 338 336 344 353 355 5 7 1 0 5 4 6 8 13 9 357 355 353 3 337 247 206 169 171 171 160 125 145 154 148 143 150 152 151 152 156 153 133 134 127 134 132 128 122 125 124 127 125
340 340 338 347 359 360 4 6 7 5 2 0 359 357 353 352 354 352 345 339 347 348 343 340 341 345 346 353 352 352 356 5 8 2 9 7 7 10 18 24 13 360 357 4 18 33 46 57 99 82 74 129 146 135 125 144 152 147 140 142 109 115 135 136 132 123 128 126 120 121 126 128 128 120
343 351 1 5 3 4 4 3 3 1 2 360 356 353 354 355 359 354 355 353 351 348 346 349 349 347 348 352 355 359 2 7 7 6 5 10 17 12 21 24 15 11 11 14 31 53 54 58 65 78 75 57 48 75 129 126 122 129 133 123 127 128 135 127 122 120 125 118 119 117 111 111 111 116
356 0 9 8 5 0 3 360 359 355 356 356 352 350 349 350 353 346 354 355 348 348 350 349 352 351 350 354 357 2 4 5 12 10 10 14 19 23 18 20 20 14 15 22 33 68 76 73 77 76 79 74 63 47 29 93 118 121 111 126 125 126 126 128 128 129 126 123 120 110 109 105 101 103
13 10 9 8 5 2 1 359 355 352 353 354 351 350 346 350 349 348 354 347 340 354 352 354 356 354 354 354 359 3 5 7 15 18 13 16 21 23 22 20 16 17 14 19 21 30 57 90 99 84 72 80 74 50 38 29 114 100 110 101 117 115 118 129 126 123 123 126 120 114 107 103 104 101
16 10 8 7 6 1 0 358 354 351 352 353 351 350 350 351 350 349 354 342 349 347 353 357 1 358 357 356 360 7 6 12 13 13 13 16 21 19 24 25 23 22 26 22 17 17 29 39 63 96 92 77 79 69 19 25 34 61 110 116 109 109 105 102 102 109 115 117 122 120 117 114 112 110
14 12 10 9 7 6 2 358 356 351 353 355 353 352 348 351 354 354 350 348 350 345 351 346 346 350 360 359 357 5 11 15 17 15 17 11 20 19 20 27 28 30 31 24 22 20 19 33 35 86 96 87 85 82 52 19 30 25 33 108 103 102 104 99 93 85 83 103 100 106 117 115 110 109
14 10 8 7 6 4 359 357 355 355 357 357 355 352 354 356 357 355 353 354 351 346 349 354 350 348 347 349 348 3 10 9 18 21 18 14 17 20 18 25 32 29 36 35 33 27 28 33 28 22 94 103 107 94 92 50 49 24 22 47 100 99 101 102 94 96 85 78 89 92 101 107 113 116
12 9 9 5 5 4 1 358 356 357 358 357 358 358 355 356 358 356 355 352 349 350 354 356 355 351 355 352 353 0 14 14 13 18 18 16 16 17 18 20 34 35 42 42 38 35 36 35 31 37 56 81 78 84 93 95 67 60 44 37 74 98 82 98 92 86 91 89 85 81 78 82 89 94
6 7 9 4 5 4 2 360 360 359 358 359 358 357 355 358 1 357 356 355 352 348 355 356 355 355 355 351 355 3 10 15 16 16 16 17 7 15 18 21 32 40 46 43 41 34 34 31 25 35 59 67 82 86 90 85 83 67 63 54 50 61 79 94 88 94 89 89 98 99 102 103 105 108
0 4 8 6 5 4 2 2 360 360 359 359 356 352 354 359 2 357 355 357 350 351 356 358 354 353 356 355 360 4 9 10 17 15 12 18 19 19 18 21 32 32 43 42 39 37 39 34 33 33 52 73 90 95 78 74 70 62 63 61 60 64 64 69 87 93 91 99 101 101 103 105 111 107
356 0 3 6 5 4 4 1 1 0 359 358 357 354 351 352 359 348 353 357 353 353 357 1 0 360 359 1 3 4 11 10 12 15 14 17 22 22 22 28 32 32 38 41 35 38 36 41 42 47 51 57 63 76 70 74 80 72 69 69 66 67 68 68 65 65 75 100 111 103 94 95 97 104
355 358 360 3 2 4 4 1 2 1 0 358 356 351 349 352 357 1 5 0 360 0 359 2 2 1 0 0 4 6 10 10 10 11 14 18 18 20 27 28 31 32 38 44 46 40 41 38 41 45 51 56 54 60 76 70 73 76 75 73 72 70 66 62 61 57 50 43 40 56 75 120 136 128
354 353 359 360 2 3 4 1 0 359 1 359 354 354 354 356 358 1 3 360 360 358 354 0 0 2 358 360 3 7 12 8 9 10 15 22 24 22 23 27 36 40 41 45 45 48 47 45 43 29 52 56 57 62 77 75 72 70 76 77 79 72 67 67 65 56 49 35 24 34 45 52 54 83
353 352 355 358 359 2 360 0 358 359 359 355 355 357 354 357 357 357 2 355 357 349 352 358 360 1 2 3 8 8 4 10 14 14 16 26 31 30 28 28 39 44 47 44 51 51 51 51 41 43 57 56 46 61 73 77 82 86 83 82 78 73 77 75 74 70 52 50 11 22 62 80 88 89